Location: Il Ritiro
(43.4167°N, 13.1333°E)
Time: 00:59:17
(UTC+00:00)

IGS 5A - Pass Details

Date: 05 July 2020
Orbit: 582 x 589 km, 97.6° (Epoch: 08 August)

Event Time Altitude Azimuth Distance (km) Brightness Sun altitude
Exits shadow 20:35:37 16° 187° (S) 1,565 5.2 -14.8°
Maximum altitude 20:38:47 52° 260° (W) 734 4.1 -15.1°
Drops below altitude 10° 20:42:52 10° 338° (NNW) 1,920 7.4 -15.5°
Sets 20:45:05 0° 343° (NNW) 2,824 8.4 -15.8°
